Theta_e
344 342 340 339 338 337 337 336 336 332 334 335 334 334 334 333 332 331 331 331 331 330 326 326 326 325 325 323 324 325 327 328 329 327 327 326 326 327 326 326 326 325 324
341 340 339 338 338 337 336 336 335 334 334 334 333 333 333 333 332 330 331 331 328 330 327 327 326 325 326 325 326 325 326 327 329 329 327 327 327 327 327 327 327 328 322
338 338 338 336 335 334 334 334 334 335 334 333 332 332 332 331 330 331 331 331 331 331 330 326 326 326 326 325 325 327 326 327 327 328 326 329 327 330 329 330 329 326 325
337 336 335 332 333 334 335 335 335 334 334 334 333 332 330 330 330 331 330 331 331 331 327 327 328 328 327 327 328 329 327 328 326 325 325 325 328 329 329 328 329 326 328
335 333 332 334 335 335 335 335 334 334 333 332 331 330 330 330 330 330 331 331 331 331 328 326 327 327 328 328 329 329 326 328 323 323 325 325 329 327 329 329 328 329 329
333 331 332 333 333 334 334 335 334 333 332 332 331 331 331 330 327 327 330 331 330 331 329 326 324 326 326 325 325 326 327 327 323 323 325 326 325 328 328 328 327 329 323
331 331 332 333 332 333 333 333 334 333 332 332 332 330 328 328 326 326 327 329 331 327 329 328 325 324 326 327 327 326 328 326 325 325 326 324 324 324 327 327 327 326 324
330 331 331 331 331 332 333 333 333 331 331 329 328 326 326 325 326 326 325 330 329 326 329 329 328 326 326 325 327 327 326 326 325 326 326 324 324 323 326 326 326 325 323
330 330 330 330 331 332 333 333 332 331 331 330 327 326 325 325 327 326 326 330 326 327 327 327 328 328 327 325 325 327 326 326 326 325 325 325 324 323 325 326 326 324 321
330 330 329 328 332 333 333 332 332 331 330 330 328 326 326 327 328 326 326 329 325 325 325 325 326 328 328 327 325 327 326 326 325 325 325 324 323 322 323 325 326 324 322
330 330 329 330 330 331 332 332 332 331 331 329 329 326 328 328 326 324 325 325 325 325 324 325 325 326 326 327 326 326 326 325 324 324 325 324 323 321 322 323 324 323 322
330 329 329 331 332 332 332 332 332 330 330 329 329 327 327 326 324 324 324 325 324 324 324 325 325 324 325 324 324 325 325 325 325 324 325 324 323 322 322 322 322 322 321
330 328 330 332 332 333 333 332 331 330 330 328 327 326 328 325 324 324 324 324 323 324 324 326 326 324 323 325 325 325 325 325 324 324 324 324 323 322 321 322 321 321 321
331 329 331 333 333 334 333 332 330 331 329 328 326 325 326 325 324 324 324 323 323 323 324 324 325 323 324 325 324 324 325 325 324 323 324 323 322 321 320 322 322 322 323
331 330 331 333 333 334 333 331 330 330 330 326 326 328 326 325 325 324 323 323 323 323 324 324 324 323 323 322 321 323 325 325 324 324 324 323 322 322 321 321 323 324 324
331 330 330 332 334 333 332 330 328 330 326 326 328 327 326 326 324 323 323 323 323 324 325 324 322 322 322 321 321 322 323 323 324 324 323 322 321 323 323 321 323 323 323
331 330 330 331 332 332 332 330 330 328 326 325 325 326 324 325 324 323 323 323 324 324 325 325 324 323 322 321 322 322 321 322 323 322 323 322 324 324 322 323 324 325 323
332 331 331 330 330 330 331 330 331 329 328 326 325 325 325 325 325 324 323 323 324 324 325 325 325 324 325 324 322 322 323 323 324 322 324 324 325 325 325 326 325 323 323
330 330 330 330 329 329 329 328 331 331 330 329 325 325 325 325 325 325 324 326 325 324 324 324 325 324 324 324 326 325 324 325 325 325 325 326 326 327 326 325 325 323 323
330 329 329 329 330 330 330 328 327 331 331 330 328 327 325 325 325 325 324 328 328 328 326 326 325 324 325 325 326 327 327 327 327 327 327 327 327 326 325 325 324 324 323
331 329 328 329 329 329 330 329 328 327 328 330 331 329 324 326 327 326 325 328 327 327 327 328 327 326 327 327 327 327 326 326 326 327 327 326 326 325 324 323 323 323 323
332 330 327 327 328 328 329 330 329 329 327 326 328 329 329 330 329 328 327 327 328 328 327 327 326 327 327 328 328 328 328 328 327 327 326 327 327 326 326 326 326 326 326
332 331 329 326 327 328 328 328 329 330 330 327 325 325 324 327 329 330 330 329 328 328 328 328 327 326 326 327 327 327 328 328 328 329 329 328 328 328 328 327 327 327 326
332 332 331 330 329 329 328 330 330 331 331 331 329 328 325 326 327 328 328 328 328 328 328 328 328 328 327 327 326 326 326 325 325 327 328 328 328 328 328 328 328 328 328
330 332 333 333 332 332 332 332 332 332 331 332 331 331 330 329 329 329 330 331 331 331 331 331 330 330 329 329 328 327 326 326 325 325 325 326 325 325 325 325 325 325 325
328 330 330 331 332 332 333 333 332 332 331 331 332 332 331 331 330 330 330 330 330 331 331 331 331 331 331 331 330 330 330 328 327 326 325 325 326 326 326 326 325 324 323
Wind_Speed
21 20 20 19 18 17 15 13 12 12 11 10 10 10 10 10 10 9 9 10 8 7 7 8 7 9 12 15 13 10 10 7 7 8 9 10 11 13 16 17 16 18 18
21 21 20 19 17 15 14 12 11 10 10 10 10 10 10 10 9 9 9 8 9 6 7 6 7 10 10 14 12 13 11 8 8 10 11 11 12 14 16 18 19 19 21
21 21 20 18 16 14 13 11 11 11 11 10 10 11 10 10 9 9 8 8 6 7 6 5 7 10 12 13 12 11 9 9 11 10 11 14 16 17 17 15 22 23 23
20 19 17 16 15 14 13 12 12 12 11 11 10 10 10 10 10 8 7 7 6 4 3 2 5 9 12 12 10 9 12 13 11 12 13 16 17 18 18 22 24 23 21
19 17 16 15 14 14 13 12 12 12 12 11 12 11 10 9 8 8 7 6 6 5 3 2 2 6 12 13 10 9 15 14 13 9 14 16 21 21 25 27 28 29 25
19 17 15 14 14 14 13 12 13 13 13 13 13 11 11 8 7 5 6 6 7 6 4 4 2 5 7 11 13 13 15 16 12 15 17 20 18 24 27 32 34 34 33
18 17 15 14 14 13 12 12 13 15 14 13 13 13 9 8 6 3 5 7 6 5 7 7 5 5 6 7 11 14 17 12 11 9 13 16 14 21 29 34 33 33 36
18 16 15 15 14 13 12 11 12 15 14 14 13 12 9 7 5 3 5 5 6 6 8 7 7 7 5 7 11 12 14 11 9 11 10 12 9 18 28 29 36 32 35
20 17 15 15 14 13 12 12 12 14 14 13 14 12 10 7 5 5 7 4 5 6 6 6 9 10 12 11 9 11 14 15 13 12 10 14 12 21 27 33 34 33 39
20 18 14 15 14 11 11 11 11 11 13 13 15 12 8 8 7 7 9 6 6 6 5 3 2 6 11 13 12 13 17 16 15 17 15 16 13 19 23 28 33 36 36
21 18 16 15 13 11 10 9 11 12 13 15 12 10 7 9 8 7 9 7 6 5 5 5 4 5 7 11 12 14 20 17 16 20 22 21 19 23 28 31 32 33 35
21 19 18 16 13 10 10 9 10 11 13 14 11 9 7 9 7 8 9 7 6 5 7 7 5 6 8 10 12 15 23 21 22 23 24 23 21 26 27 26 28 29 23
22 20 19 15 12 11 10 9 8 10 11 11 10 9 7 8 8 8 6 8 8 7 8 7 6 8 7 10 13 16 27 24 24 24 26 25 21 23 23 27 28 22 15
23 21 19 15 13 11 9 7 7 8 10 10 10 10 9 11 9 7 5 5 6 7 9 9 10 9 11 12 18 20 22 25 25 26 26 24 26 23 24 28 24 17 9
23 22 18 15 13 11 9 8 7 8 9 11 10 10 10 10 9 8 6 7 8 8 12 15 14 12 15 18 17 21 22 23 24 25 26 25 26 25 22 21 16 12 10
23 22 20 16 13 11 9 10 11 9 11 14 11 10 9 9 9 8 8 8 8 11 17 16 14 15 17 16 15 17 19 21 23 24 26 27 23 20 20 20 13 12 11
22 21 20 16 15 13 11 9 9 14 14 13 14 13 8 7 9 12 11 11 12 13 17 15 15 14 15 15 14 15 19 18 22 22 22 21 18 19 22 18 14 14 15
21 21 19 17 15 13 12 10 9 11 13 12 13 12 10 11 11 13 14 15 14 11 13 14 16 15 14 16 14 17 17 18 19 20 18 19 18 18 18 17 17 17 16
21 20 19 18 16 14 13 12 11 10 11 11 14 13 13 15 14 13 13 10 11 12 13 13 14 14 13 14 13 13 18 18 17 17 18 17 17 16 17 17 17 17 17
19 20 21 19 17 16 14 13 13 12 12 11 12 13 15 16 16 16 15 10 8 8 9 12 14 15 14 13 14 13 15 17 16 17 15 15 16 16 17 17 18 17 19
19 19 23 19 17 17 15 14 12 13 13 11 11 12 12 13 12 14 16 12 10 10 11 10 9 11 15 16 15 15 15 17 16 17 17 17 17 18 18 18 19 20 19
20 18 23 20 18 17 16 15 14 12 12 12 12 12 12 14 10 11 12 12 12 11 10 11 11 11 12 13 15 18 19 19 18 19 20 19 19 19 19 20 21 21 21
19 20 20 20 17 16 16 16 15 13 12 11 12 11 16 14 10 10 10 10 11 12 11 11 12 11 12 13 14 15 16 17 18 19 20 21 22 22 22 23 23 24 25
13 16 18 20 17 16 16 15 13 13 13 12 11 9 11 12 10 9 9 8 9 9 10 11 11 12 12 13 13 14 15 15 16 17 19 20 21 23 23 24 25 26 26
21 16 12 13 13 13 13 13 12 10 11 11 11 10 7 8 8 8 8 9 9 9 9 9 10 11 13 15 15 15 17 21 21 19 19 21 23 24 25 26 26 28 28
19 18 20 21 21 20 17 17 18 17 18 14 11 9 8 6 7 6 5 4 5 6 7 8 8 10 11 12 17 20 24 25 26 26 25 24 25 26 27 28 29 31 31
Wind_Direction
151 149 146 145 147 151 155 160 170 185 189 191 198 199 196 194 195 198 201 212 213 214 233 237 232 216 212 217 221 212 236 226 175 166 172 179 181 191 189 191 183 187 181
149 146 146 144 148 150 154 161 173 175 181 185 181 184 183 189 195 194 196 211 213 224 243 228 224 212 201 202 207 209 213 197 164 162 155 166 168 173 176 186 185 179 180
147 147 145 146 150 152 155 159 162 167 165 171 173 177 181 187 188 191 208 213 219 221 221 233 234 208 198 204 212 203 196 178 161 159 161 160 167 169 178 171 170 172 178
149 148 147 148 150 150 152 154 161 161 163 171 172 171 178 177 180 195 211 209 197 188 222 276 233 213 211 195 198 183 180 157 153 148 161 164 158 165 167 163 164 169 164
150 148 148 151 149 149 152 159 163 162 163 166 163 165 173 177 182 199 200 178 170 162 157 147 87 191 185 187 185 181 163 159 159 180 177 158 164 169 171 169 165 166 170
150 152 154 153 150 152 155 161 165 165 166 168 169 166 167 169 184 183 171 163 164 165 163 171 127 115 166 187 188 178 167 177 181 171 174 168 174 179 181 173 170 169 154
154 154 156 157 154 155 158 169 174 176 171 169 169 163 176 178 170 180 182 160 168 182 187 185 169 177 162 171 183 181 178 184 190 172 167 183 172 182 181 174 173 173 167
156 154 156 156 156 158 166 173 180 177 168 168 164 163 166 171 183 208 182 181 175 171 178 192 209 199 179 163 161 159 174 174 177 165 189 177 167 171 181 180 172 171 163
158 153 151 155 155 160 169 174 171 171 169 167 170 172 173 186 201 193 148 190 168 160 167 210 217 225 209 186 175 162 166 161 161 162 174 165 154 170 177 181 171 165 159
160 157 153 154 155 155 169 168 162 170 172 166 175 173 187 196 202 204 171 156 172 178 185 205 218 215 208 195 194 186 173 176 161 155 165 155 156 174 176 176 172 172 166
161 158 156 156 156 159 156 166 160 162 163 163 165 178 193 175 199 184 182 181 187 191 200 203 197 189 190 196 199 195 188 169 170 161 168 161 160 167 171 174 173 178 168
161 158 157 155 152 155 152 159 167 164 165 165 162 165 164 182 190 175 186 204 211 222 204 195 190 179 182 199 190 188 183 170 168 163 171 169 172 175 175 174 176 174 165
163 162 162 162 160 162 155 151 168 170 163 166 179 180 175 181 187 186 213 218 219 224 209 183 178 165 164 160 161 161 173 166 166 165 170 174 173 166 174 173 171 170 178
165 166 168 166 168 167 164 154 170 183 170 174 179 182 182 189 189 197 204 191 179 191 186 173 166 148 145 147 154 162 170 168 169 168 169 168 164 165 165 168 176 177 172
168 170 171 172 168 167 162 163 169 190 180 177 171 179 180 189 195 204 200 182 174 174 163 159 153 148 148 140 151 168 168 168 167 172 170 167 168 167 166 170 175 181 179
172 176 177 177 173 170 171 165 176 185 171 162 172 172 177 192 194 188 174 162 161 152 159 158 148 150 153 151 155 161 167 170 172 170 175 173 163 167 171 177 179 186 179
175 177 181 180 180 177 169 165 173 179 174 175 172 179 174 162 166 160 154 146 146 151 157 158 158 156 154 155 154 159 159 168 171 161 164 166 168 170 176 183 188 194 198
179 181 183 182 182 176 173 165 168 178 173 176 176 172 160 149 150 154 152 148 153 151 173 169 168 159 157 154 152 158 150 154 163 168 163 168 175 180 188 195 199 202 202
184 186 184 183 181 174 170 166 166 164 166 172 175 170 164 157 154 151 145 148 157 160 169 173 175 171 175 163 157 161 165 168 170 172 177 183 188 192 197 201 207 209 212
187 188 183 184 183 179 175 171 173 170 167 176 169 175 170 168 169 168 159 157 162 160 166 174 185 185 183 182 179 179 179 182 186 186 190 195 198 200 207 210 211 219 223
190 192 184 185 186 184 181 179 177 178 179 178 174 186 173 163 173 180 181 175 179 176 170 167 177 183 190 188 187 189 198 203 202 199 201 205 209 213 214 220 225 227 228
192 189 187 190 190 190 189 188 186 180 179 180 179 197 174 156 181 185 189 192 187 186 189 184 182 187 186 192 199 205 208 214 215 214 212 213 219 222 225 229 230 233 237
194 191 190 191 192 192 190 186 185 187 183 178 180 201 194 187 187 191 193 196 199 200 198 199 197 202 204 204 204 204 209 215 219 219 222 224 227 232 234 235 236 239 242
172 185 192 194 193 193 190 192 192 191 190 187 182 191 191 198 197 199 199 203 206 208 209 212 215 216 222 221 224 223 223 223 224 228 225 228 232 236 236 239 243 245 247
159 150 162 180 186 189 189 185 180 178 181 181 182 184 185 188 195 198 200 203 208 213 221 223 227 232 233 231 234 239 239 242 234 230 237 240 239 240 242 246 247 247 250
161 156 151 153 149 150 152 153 152 147 145 141 142 149 153 163 170 168 178 199 210 225 229 237 244 247 246 247 243 242 240 243 249 250 244 243 245 250 252 252 253 254 256